[[{"header":{"parameterUnit":"m.s-1","parameterCategory":1,"la1":30.2991,"la2":30.254,"lo1":-89.0895,"lo2":-89.0444,"dy":0.0017,"dx":0.0017,"nx":28,"ny":28,"refTime":"2025-06-07T03:00:00:Z","depth":0,"parameterNumber":2,"parameterNumberName":"U-component_of_WINDS"},"data":[0,0,0,0,0,0,0,0,0,0,0,0,0,0,0,0,0,0,0,0,0,0,0,0,0,0,0,0,0,0,0,0,0,0,0,0,0,0,0,0,0,0,0,0,0,0,0,0,0,0,0,0,0,0,0,0,0,0,5.6382,5.6384,0,5.6531,5.6533,5.6535,5.6498,5.6495,5.6492,5.6489,5.6642,5.6649,5.6655,0,0,0,0,0,0,0,0,0,0,0,0,0,5.6062,5.6068,5.6382,5.6384,5.6386,5.6531,5.6533,5.6535,5.6498,5.6495,5.6491,5.6488,5.664,5.6648,5.6656,0,0,0,0,0,0,0,0,0,0,0,0,0,5.6205,5.607,5.6381,5.6385,5.6387,5.653,5.6533,5.6536,5.6499,5.6495,5.649,5.6486,5.6637,5.6647,5.6657,5.6807,0,0,5.6688,5.6692,0,0,0,0,0,0,0,0,5.6197,5.6217,5.6382,5.6385,5.6387,5.6491,5.6476,5.6627,5.65,5.6456,5.6489,5.6484,5.6595,5.6609,5.6646,5.6814,5.6821,5.6689,5.6695,5.6699,5.6702,0,0,0,0,0,0,0,5.6187,5.621,5.6441,5.6385,5.6388,5.6378,5.6393,5.6505,5.6548,5.646,5.6457,5.6476,5.6596,5.6637,5.665,5.6823,5.6689,5.6698,5.6704,5.6708,5.7116,5.7121,0,0,0,0,0,0,5.6176,5.6202,5.6436,5.6445,5.628,5.6387,5.6405,5.6462,5.6547,5.6556,5.6479,5.6473,5.6621,5.6638,5.6655,5.6832,5.6699,5.6709,5.6715,5.7111,5.7117,5.7122,0,0,0,0,0,0,5.6169,5.6197,5.643,5.6323,5.6352,5.6397,5.6462,5.6468,5.6508,5.6562,5.6569,5.6513,5.6619,5.664,5.6768,5.6837,5.6713,5.6723,5.7106,5.7113,5.712,5.719,0,0,0,0,0,0,5.616,5.6195,5.6253,5.6325,5.6358,5.6542,5.6467,5.6474,5.6526,5.652,5.6595,5.6604,5.6617,5.6753,5.6778,5.6849,5.6731,5.71,5.7109,5.7117,5.7181,5.7198,5.7213,0,0,0,0,0,5.6149,5.6268,5.6256,5.6285,5.6432,5.6546,5.6565,5.6577,5.6532,5.6589,5.6623,5.6601,5.6826,5.6767,5.6795,5.6869,5.7095,5.7106,5.7117,5.7174,5.7195,5.7212,0,0,0,0,0,0,5.6203,5.6277,5.6265,5.6411,5.6472,5.654,5.6613,5.66,5.6675,5.6666,5.6679,5.6696,5.6826,5.6861,5.6793,5.7016,5.6954,5.6971,5.6988,5.7008,5.7024,5.7011,5.6739,0,0,0,0,0,5.6232,5.6319,5.6379,5.6502,5.6533,5.6568,5.6619,5.6623,5.6687,5.6712,5.6756,5.6819,5.6902,5.6958,5.7039,5.7187,5.7201,5.7252,5.7268,5.728,5.7293,5.737,5.7392,5.7157,5.7157,5.7157,0,0,5.6293,5.6344,5.6399,5.6514,5.6562,5.665,5.659,5.6687,5.6752,5.6727,5.6849,5.6883,5.6954,5.7091,5.7154,5.7124,5.7362,5.7294,5.7303,5.731,5.7383,5.7405,5.7425,5.7165,5.7163,5.7162,0,0,5.6447,5.6497,5.6602,5.6651,5.6724,5.6746,5.6771,5.6841,5.6862,5.6984,5.6966,5.7044,5.719,5.7239,5.7284,5.7455,5.7436,5.7481,5.7562,5.7636,5.7655,5.7671,5.7728,5.7749,5.7495,5.7495,5.7495,0,5.6513,5.6646,5.6658,5.6756,5.6806,5.6787,5.6892,5.6939,5.7035,5.7069,5.7035,5.7215,5.7262,5.7408,5.7449,5.7488,5.7514,5.7471,5.7651,5.7668,5.7683,5.7737,5.7759,5.75,5.7499,5.7499,5.7498,0,5.6721,5.6814,5.689,5.6981,5.704,5.7142,5.7167,5.7226,5.7225,5.725,5.7373,5.7428,5.7517,5.7554,5.7555,5.77,5.7678,5.7648,5.7585,5.771,5.7761,5.7782,5.7506,5.7505,5.7503,5.7502,0,0,5.6913,5.7009,5.7036,5.7076,5.7154,5.7225,5.7325,5.7412,5.7459,5.7526,5.7607,5.773,5.7702,5.7752,5.7758,5.7824,5.795,5.7785,5.7787,5.781,5.8109,5.8128,5.8152,5.794,5.7944,5.7947,5.8101,0,5.7071,5.7246,5.7259,5.7416,5.7499,5.7481,5.7567,5.7624,5.765,5.7723,5.7752,5.7837,5.7795,5.7824,5.7889,5.7921,5.801,5.7911,5.8013,5.8016,5.7991,5.818,5.8201,5.8344,5.8122,5.8125,5.8128,0,5.7279,5.735,5.7515,5.7578,5.7613,5.7691,5.7769,5.7841,5.7904,5.7918,5.7973,5.7969,5.8069,5.8005,5.8141,5.8073,5.8116,5.8138,5.8143,5.815,5.8077,5.8188,5.8391,5.841,5.816,5.8158,5.8155,0,5.7397,5.7534,5.7649,5.7685,5.7763,5.7816,5.7851,5.791,5.796,5.8029,5.8061,5.8142,5.8185,5.8247,5.8264,5.8217,5.8398,5.8337,5.841,5.8409,5.8446,5.8443,5.8655,5.8481,5.8481,5.848,5.848,0,5.757,5.767,5.7703,5.7773,5.7884,5.7898,5.8007,5.8039,5.8091,5.8165,5.8157,5.8227,5.8248,5.8321,5.8336,5.8444,5.8465,5.8477,5.8478,5.8475,5.8473,5.85,5.8489,5.8486,5.8485,5.8484,5.8483,0,5.7719,5.7745,5.7869,5.7932,5.795,5.8029,5.8082,5.8149,5.8173,5.8267,5.8291,5.8328,5.8414,5.8438,5.8542,5.8552,5.8677,5.8672,5.8655,5.8654,5.8724,5.8716,5.8958,5.8988,5.8798,5.88,5.8802,0,5.7825,5.7902,5.7972,5.8021,5.8058,5.8139,5.8189,5.8205,5.8258,5.8334,5.8391,5.8476,5.8543,5.8681,5.8717,5.8796,5.879,5.8869,5.8801,5.8794,5.8786,5.8779,5.8785,5.8881,5.8883,5.8885,5.8886,0,5.801,5.8018,5.8092,5.817,5.823,5.8292,5.8352,5.8392,5.8417,5.8476,5.8563,5.8616,5.8721,5.8803,5.8882,5.8917,5.8904,5.8907,5.8928,5.8923,5.8908,5.8912,5.8686,5.8901,5.8899,5.8898,5.8897,5.8897,5.8138,5.8203,5.8262,5.8343,5.839,5.8445,5.8509,5.8541,5.8614,5.8699,5.8705,5.8798,5.8857,5.8961,5.9,5.9072,5.9048,5.9079,5.9086,5.9092,5.9096,5.89,5.9087,5.9087,5.9087,5.9086,5.9086,0,5.8318,5.8354,5.8429,5.8512,5.8575,5.8559,5.8623,5.8676,5.8758,5.8814,5.8881,5.8979,5.9059,5.9101,5.918,5.9229,5.9225,5.9249,5.9243,5.9251,5.9115,5.9087,5.9251,5.9251,5.925,5.925,5.925,5.925,5.8418,5.8527,5.8542,5.8672,5.8708,5.8799,5.8837,5.8887,5.893,5.904,5.9106,5.9133,5.9182,5.9264,5.9336,5.9346,5.9374,5.94,5.9406,5.9278,5.9261,5.9245,5.9218,5.9407,5.9407,5.9535,5.9537,5.9538]},{"header":{"parameterUnit":"m.s-1","parameterCategory":1,"la1":30.2991,"la2":30.254,"lo1":-89.0895,"lo2":-89.0444,"dy":0.0017,"dx":0.0017,"nx":28,"ny":28,"refTime":"2025-06-07T03:00:00:Z","depth":0,"parameterNumber":3,"parameterNumberName":"V-component_of_WINDS"},"data":[0,0,0,0,0,0,0,0,0,0,0,0,0,0,0,0,0,0,0,0,0,0,0,0,0,0,0,0,0,0,0,0,0,0,0,0,0,0,0,0,0,0,0,0,0,0,0,0,0,0,0,0,0,0,0,0,0,0,4.2789,4.279,0,4.2903,4.2904,4.2905,4.2874,4.2871,4.2869,4.2867,4.2982,4.2987,4.2992,0,0,0,0,0,0,0,0,0,0,0,0,0,4.254,4.2545,4.2789,4.279,4.2791,4.2903,4.2904,4.2906,4.2874,4.2871,4.2869,4.2866,4.298,4.2986,4.2992,0,0,0,0,0,0,0,0,0,0,0,0,0,4.265,4.2546,4.2788,4.2789,4.279,4.2902,4.2904,4.2906,4.2875,4.2871,4.2868,4.2865,4.2978,4.2985,4.2993,4.311,0,0,4.3017,4.302,0,0,0,0,0,0,0,0,4.2644,4.266,4.2788,4.2789,4.2791,4.2871,4.2858,4.2975,4.2876,4.2843,4.2867,4.2863,4.2947,4.2957,4.2986,4.3116,4.3121,4.3018,4.3022,4.3026,4.3028,0,0,0,0,0,0,0,4.2637,4.2654,4.2834,4.2789,4.2792,4.2783,4.2795,4.288,4.2913,4.2845,4.2843,4.2857,4.2947,4.2979,4.2989,4.3122,4.3017,4.3024,4.3029,4.3032,4.3351,4.3355,0,0,0,0,0,0,4.2628,4.2648,4.283,4.2837,4.2708,4.279,4.2803,4.2848,4.2912,4.2918,4.286,4.2855,4.2967,4.298,4.2993,4.3133,4.3026,4.3033,4.3037,4.3348,4.3352,4.3356,0,0,0,0,0,0,4.2623,4.2645,4.2825,4.2742,4.2765,4.2798,4.2849,4.2853,4.2884,4.2923,4.2928,4.2887,4.2965,4.2982,4.3081,4.3136,4.3036,4.3044,4.3343,4.3349,4.3354,4.3415,0,0,0,0,0,0,4.2616,4.2643,4.2689,4.2744,4.2769,4.2913,4.2852,4.2857,4.2898,4.2893,4.2949,4.2955,4.2964,4.307,4.3089,4.3145,4.305,4.3338,4.3346,4.3353,4.3408,4.3422,4.3434,0,0,0,0,0,4.2607,4.2701,4.2691,4.2713,4.2827,4.2917,4.2931,4.2939,4.2902,4.2948,4.2973,4.2953,4.3127,4.308,4.3101,4.3161,4.3335,4.3344,4.3352,4.3402,4.3419,4.3434,0,0,0,0,0,0,4.2652,4.2708,4.2698,4.2813,4.286,4.2911,4.2969,4.2957,4.3015,4.3008,4.3015,4.3028,4.313,4.3155,4.3102,4.3277,4.3225,4.3239,4.3256,4.3273,4.3286,4.3277,4.3056,0,0,0,0,0,4.2675,4.2744,4.2789,4.2886,4.291,4.2936,4.2975,4.2977,4.3026,4.3046,4.3078,4.3125,4.319,4.3233,4.3295,4.3412,4.3423,4.3463,4.3476,4.3486,4.3497,4.3559,4.3577,4.3385,4.3384,4.3384,0,0,4.2724,4.2763,4.2806,4.2896,4.2933,4.3002,4.2953,4.3029,4.308,4.3057,4.3153,4.3178,4.3231,4.3339,4.3388,4.3364,4.3553,4.3497,4.3505,4.3511,4.357,4.3588,4.3604,4.339,4.3389,4.3388,0,0,4.2848,4.2885,4.2969,4.3007,4.3063,4.308,4.31,4.3152,4.3168,4.3265,4.3248,4.3309,4.3421,4.3459,4.3493,4.363,4.3614,4.365,4.3717,4.3777,4.3793,4.3806,4.3854,4.3871,4.3661,4.3662,4.3662,0,4.2901,4.3006,4.3014,4.3091,4.313,4.3113,4.3197,4.3233,4.3307,4.3334,4.3305,4.3445,4.348,4.3596,4.3629,4.3658,4.368,4.3644,4.379,4.3804,4.3816,4.3862,4.388,4.3665,4.3665,4.3665,4.3664,0,4.3068,4.3141,4.3202,4.3274,4.332,4.34,4.3419,4.3464,4.3462,4.3481,4.3578,4.3619,4.3688,4.3716,4.3715,4.3832,4.3814,4.3788,4.3736,4.3838,4.3881,4.3899,4.3671,4.367,4.3669,4.3668,0,0,4.3223,4.3298,4.332,4.3352,4.3412,4.3468,4.3547,4.3616,4.3654,4.3705,4.377,4.3865,4.3841,4.388,4.3882,4.3935,4.4039,4.3902,4.3903,4.3925,4.4169,4.4187,4.4208,4.4029,4.4032,4.4035,4.4164,0,4.3352,4.3492,4.35,4.3626,4.3693,4.3677,4.3745,4.3789,4.3808,4.3866,4.3887,4.3954,4.3917,4.394,4.3992,4.4016,4.4088,4.4007,4.4088,4.4091,4.4075,4.423,4.4251,4.437,4.4181,4.4183,4.4186,0,4.352,4.3577,4.371,4.376,4.3788,4.3849,4.3912,4.3969,4.4017,4.4027,4.407,4.4065,4.4144,4.409,4.4198,4.4143,4.4176,4.4193,4.4198,4.4205,4.4144,4.4241,4.4409,4.4426,4.4212,4.421,4.4208,0,4.3619,4.3728,4.3822,4.3849,4.391,4.3953,4.3981,4.4026,4.4066,4.412,4.4146,4.4209,4.4243,4.4291,4.4302,4.4262,4.441,4.4357,4.4419,4.4419,4.4451,4.4448,4.4626,4.4474,4.4474,4.4473,4.4473,0,4.3761,4.3843,4.3866,4.3924,4.4014,4.4023,4.4111,4.4135,4.4176,4.4236,4.4226,4.4283,4.4294,4.4353,4.4362,4.445,4.4466,4.4475,4.4476,4.4476,4.4474,4.4497,4.4489,4.4478,4.4477,4.4476,4.4475,0,4.3886,4.3906,4.4006,4.4055,4.407,4.4134,4.4175,4.4229,4.4247,4.4324,4.4342,4.4369,4.4438,4.4454,4.4536,4.4542,4.4645,4.4639,4.4629,4.4628,4.4689,4.4682,4.4886,4.4913,4.4745,4.4747,4.4748,0,4.3975,4.4038,4.4094,4.4134,4.4163,4.4228,4.4269,4.4279,4.4321,4.4381,4.4427,4.4495,4.4549,4.4659,4.4686,4.4748,4.4742,4.4809,4.4751,4.4748,4.4742,4.4737,4.4743,4.482,4.4822,4.4823,4.4825,0,4.4131,4.4137,4.4197,4.426,4.4309,4.4359,4.4406,4.4439,4.4456,4.4504,4.4574,4.4617,4.47,4.4766,4.4828,4.4854,4.4842,4.4843,4.486,4.486,4.4851,4.4855,4.4658,4.4838,4.4836,4.4835,4.4835,4.4834,4.424,4.4294,4.4341,4.4408,4.4445,4.4489,4.4542,4.4566,4.4625,4.4694,4.4696,4.4772,4.4818,4.49,4.493,4.4988,4.4968,4.4993,4.5,4.5005,4.501,4.4842,4.5,4.5,4.4999,4.4999,4.4999,0,4.4393,4.4423,4.4484,4.4551,4.4603,4.4587,4.4639,4.4683,4.475,4.4794,4.4848,4.4928,4.4992,4.5023,4.5086,4.5127,4.5123,4.5143,4.514,4.5146,4.5026,4.5004,4.5146,4.5146,4.5146,4.5146,4.5146,4.5146,4.4479,4.457,4.4582,4.4689,4.4718,4.4793,4.4824,4.4864,4.4899,4.4989,4.5042,4.5063,4.5101,4.5167,4.5224,4.5232,4.5255,4.5278,4.5282,4.517,4.5155,4.514,4.512,4.5283,4.5283,4.5397,4.5398,4.5399]}]]